| time (UTC) | temp F | wind direction | speed MPH | gust MPH | rain 1hr in | rain 24hr in | rain mn in | humidity % | barometer mb |
| 20260503003902 | 63 | 192 | 3.0 | 8.0 | 0.00 | 0.00 | 0.00 | 41 | 1010.3 |
| 20260503003736 | 63 | 265 | 3.0 | 7.0 | 0.00 | 0.00 | 0.00 | 41 | 1010.2 |
| 20260503002901 | 63 | 257 | 2.0 | 7.0 | 0.00 | 0.00 | 0.00 | 41 | 1010.3 |
| 20260503002402 | 64 | 232 | 2.0 | 7.0 | 0.00 | 0.00 | 0.00 | 41 | 1010.3 |
| 20260503001901 | 64 | 212 | 1.0 | 6.0 | 0.00 | 0.00 | 0.00 | 40 | 1010.4 |
| 20260503001401 | 64 | 236 | 2.0 | 9.0 | 0.00 | 0.00 | 0.00 | 39 | 1010.4 |
| 20260503000904 | 64 | 227 | 2.0 | 9.0 | 0.00 | 0.00 | 0.00 | 39 | 1010.4 |
| 20260503000404 | 64 | 275 | 1.0 | 3.0 | 0.00 | 0.00 | 0.00 | 38 | 1010.4 |
| 20260503000155 | 64 | 230 | 1.0 | 5.0 | 0.00 | 0.00 | 0.00 | 38 | 1010.4 |
| 20260502235404 | 64 | 263 | 2.0 | 5.0 | 0.00 | 0.00 | 0.00 | 38 | 1010.5 |
| 20260502234902 | 64 | 204 | 1.0 | 5.0 | 0.00 | 0.00 | 0.00 | 38 | 1010.5 |
| 20260502234411 | 64 | 193 | 1.0 | 5.0 | 0.00 | 0.00 | 0.00 | 39 | 1010.5 |
| 20260502233904 | 64 | 238 | 2.0 | 7.0 | 0.00 | 0.00 | 0.00 | 39 | 1010.5 |
| 20260502233403 | 64 | 218 | 2.0 | 7.0 | 0.00 | 0.00 | 0.00 | 39 | 1010.5 |
| 20260502233152 | 64 | 290 | 3.0 | 7.0 | 0.00 | 0.00 | 0.00 | 40 | 1010.7 |
| 20260502232400 | 64 | 306 | 2.0 | 7.0 | 0.00 | 0.00 | 0.00 | 39 | 1010.8 |
| 20260502231902 | 64 | 264 | 1.0 | 6.0 | 0.00 | 0.00 | 0.00 | 40 | 1011.0 |
| 20260502231402 | 64 | 294 | 3.0 | 10.0 | 0.00 | 0.00 | 0.00 | 38 | 1011.2 |
| 20260502230902 | 64 | 178 | 5.0 | 11.0 | 0.00 | 0.00 | 0.00 | 39 | 1011.1 |
| 20260502230401 | 64 | 336 | 4.0 | 11.0 | 0.00 | 0.00 | 0.00 | 37 | 1011.4 |
| 20260502225902 | 64 | 252 | 3.0 | 11.0 | 0.00 | 0.00 | 0.00 | 37 | 1011.2 |
| 20260502225648 | 64 | 227 | 3.0 | 8.0 | 0.00 | 0.00 | 0.00 | 37 | 1011.3 |
| 20260502224901 | 64 | 262 | 3.0 | 8.0 | 0.00 | 0.00 | 0.00 | 37 | 1011.3 |
| 20260502224401 | 64 | 268 | 3.0 | 9.0 | 0.00 | 0.00 | 0.00 | 37 | 1011.3 |
| 20260502224157 | 64 | 222 | 4.0 | 10.0 | 0.00 | 0.00 | 0.00 | 36 | 1011.3 |
| 20260502223401 | 64 | 275 | 5.0 | 10.0 | 0.00 | 0.00 | 0.00 | 36 | 1011.4 |
| 20260502222900 | 64 | 241 | 4.0 | 10.0 | 0.00 | 0.00 | 0.00 | 36 | 1011.3 |
| 20260502222403 | 64 | 228 | 3.0 | 7.0 | 0.00 | 0.00 | 0.00 | 37 | 1011.3 |
| 20260502221901 | 64 | 190 | 3.0 | 7.0 | 0.00 | 0.00 | 0.00 | 37 | 1011.4 |
| 20260502221401 | 64 | 255 | 4.0 | 11.0 | 0.00 | 0.00 | 0.00 | 38 | 1011.3 |
| 20260502220901 | 64 | 262 | 3.0 | 11.0 | 0.00 | 0.00 | 0.00 | 37 | 1011.4 |
| 20260502220813 | 64 | 279 | 3.0 | 11.0 | 0.00 | 0.00 | 0.00 | 37 | 1011.5 |
| 20260502215401 | 64 | 205 | 3.0 | 7.0 | 0.00 | 0.00 | 0.00 | 38 | 1011.5 |
| 20260502214901 | 64 | 218 | 3.0 | 8.0 | 0.00 | 0.00 | 0.00 | 38 | 1011.7 |
| 20260502214401 | 64 | 180 | 4.0 | 10.0 | 0.00 | 0.00 | 0.00 | 37 | 1011.7 |
| 20260502213901 | 64 | 231 | 4.0 | 12.0 | 0.00 | 0.00 | 0.00 | 36 | 1011.9 |
| 20260502213400 | 64 | 207 | 4.0 | 12.0 | 0.00 | 0.00 | 0.00 | 36 | 1012.0 |
| 20260502212902 | 64 | 227 | 4.0 | 10.0 | 0.00 | 0.00 | 0.00 | 37 | 1012.1 |
| 20260502212402 | 65 | 198 | 5.0 | 14.0 | 0.00 | 0.00 | 0.00 | 36 | 1012.1 |
| 20260502211901 | 65 | 154 | 6.0 | 14.0 | 0.00 | 0.00 | 0.00 | 37 | 1012.2 |
| 20260502211441 | 65 | 221 | 6.0 | 14.0 | 0.00 | 0.00 | 0.00 | 36 | 1012.4 |
| 20260502210401 | 65 | 242 | 6.0 | 16.0 | 0.00 | 0.00 | 0.00 | 36 | 1012.7 |
| 20260502210202 | 65 | 275 | 5.0 | 13.0 | 0.00 | 0.00 | 0.00 | 36 | 1012.8 |
| 20260502205706 | 65 | 206 | 6.0 | 16.0 | 0.00 | 0.00 | 0.00 | 34 | 1012.9 |
| 20260502204901 | 65 | 301 | 6.0 | 16.0 | 0.00 | 0.00 | 0.00 | 37 | 1013.1 |
| 20260502204401 | 65 | 211 | 4.0 | 11.0 | 0.00 | 0.00 | 0.00 | 36 | 1013.0 |
| 20260502203901 | 64 | 271 | 5.0 | 10.0 | 0.00 | 0.00 | 0.00 | 37 | 1013.2 |
| 20260502203706 | 64 | 268 | 5.0 | 14.0 | 0.00 | 0.00 | 0.00 | 36 | 1013.4 |
| 20260502202901 | 64 | 170 | 6.0 | 14.0 | 0.00 | 0.00 | 0.00 | 38 | 1013.3 |
| 20260502202403 | 63 | 193 | 6.0 | 12.0 | 0.00 | 0.00 | 0.00 | 36 | 1013.4 |
| 20260502201902 | 63 | 193 | 6.0 | 14.0 | 0.00 | 0.00 | 0.00 | 38 | 1013.6 |
| 20260502201659 | 63 | 235 | 7.0 | 14.0 | 0.00 | 0.00 | 0.00 | 37 | 1013.7 |
| 20260502200900 | 63 | 234 | 6.0 | 12.0 | 0.00 | 0.00 | 0.00 | 37 | 1013.8 |
| 20260502200401 | 63 | 274 | 5.0 | 11.0 | 0.00 | 0.00 | 0.00 | 38 | 1013.8 |
| 20260502195901 | 63 | 184 | 5.0 | 10.0 | 0.00 | 0.00 | 0.00 | 38 | 1013.9 |
| 20260502195402 | 63 | 255 | 5.0 | 10.0 | 0.00 | 0.00 | 0.00 | 37 | 1014.0 |
| 20260502194901 | 62 | 214 | 5.0 | 14.0 | 0.00 | 0.00 | 0.00 | 39 | 1014.1 |
| 20260502194650 | 62 | 188 | 5.0 | 14.0 | 0.00 | 0.00 | 0.00 | 37 | 1014.2 |
| 20260502193902 | 62 | 167 | 5.0 | 12.0 | 0.00 | 0.00 | 0.00 | 36 | 1014.2 |
| 20260502193401 | 62 | 178 | 6.0 | 12.0 | 0.00 | 0.00 | 0.00 | 38 | 1014.4 |
| 20260502192903 | 62 | 198 | 6.0 | 15.0 | 0.00 | 0.00 | 0.00 | 38 | 1014.4 |
| 20260502192653 | 62 | 217 | 5.0 | 15.0 | 0.00 | 0.00 | 0.00 | 39 | 1014.5 |
| 20260502191901 | 61 | 269 | 5.0 | 14.0 | 0.00 | 0.00 | 0.00 | 38 | 1014.6 |
| 20260502191400 | 61 | 178 | 5.0 | 14.0 | 0.00 | 0.00 | 0.00 | 38 | 1014.8 |
| 20260502190902 | 61 | 252 | 5.0 | 14.0 | 0.00 | 0.00 | 0.00 | 38 | 1014.9 |
| 20260502190402 | 61 | 223 | 5.0 | 13.0 | 0.00 | 0.00 | 0.00 | 37 | 1015.1 |
| 20260502185902 | 61 | 207 | 5.0 | 12.0 | 0.00 | 0.00 | 0.00 | 40 | 1015.1 |
| 20260502185401 | 60 | 246 | 5.0 | 14.0 | 0.00 | 0.00 | 0.00 | 39 | 1015.1 |
| 20260502184903 | 60 | 294 | 6.0 | 14.0 | 0.00 | 0.00 | 0.00 | 39 | 1015.4 |
| 20260502184657 | 61 | 155 | 5.0 | 13.0 | 0.00 | 0.00 | 0.00 | 38 | 1015.3 |
| 20260502183903 | 61 | 191 | 5.0 | 12.0 | 0.00 | 0.00 | 0.00 | 42 | 1015.4 |
| 20260502183508 | 60 | 196 | 5.0 | 11.0 | 0.00 | 0.00 | 0.00 | 39 | 1015.4 |
| 20260502182402 | 60 | 177 | 4.0 | 11.0 | 0.00 | 0.00 | 0.00 | 40 | 1015.6 |
| 20260502181901 | 60 | 207 | 4.0 | 11.0 | 0.00 | 0.00 | 0.00 | 39 | 1015.6 |
| 20260502181402 | 59 | 194 | 5.0 | 12.0 | 0.00 | 0.00 | 0.00 | 38 | 1015.6 |
| 20260502181153 | 59 | 215 | 5.0 | 12.0 | 0.00 | 0.00 | 0.00 | 41 | 1015.8 |
| 20260502180404 | 59 | 180 | 4.0 | 11.0 | 0.00 | 0.00 | 0.00 | 40 | 1015.8 |
| 20260502170402 | 57 | 228 | 4.0 | 10.0 | 0.00 | 0.00 | 0.00 | 38 | 1016.7 |
| 20260502163902 | 57 | 232 | 4.0 | 10.0 | 0.00 | 0.00 | 0.00 | 41 | 1017.0 |
| 20260502163402 | 56 | 264 | 5.0 | 11.0 | 0.00 | 0.00 | 0.00 | 42 | 1017.1 |
| 20260502162903 | 56 | 228 | 5.0 | 11.0 | 0.00 | 0.00 | 0.00 | 42 | 1017.2 |
| 20260502162404 | 56 | 169 | 4.0 | 11.0 | 0.00 | 0.00 | 0.00 | 42 | 1017.2 |
| 20260502161902 | 56 | 219 | 4.0 | 11.0 | 0.00 | 0.00 | 0.00 | 42 | 1017.2 |
| 20260502161402 | 56 | 300 | 5.0 | 10.0 | 0.00 | 0.00 | 0.00 | 43 | 1017.3 |
| 20260502160902 | 56 | 246 | 5.0 | 12.0 | 0.00 | 0.00 | 0.00 | 43 | 1017.4 |
| 20260502160402 | 56 | 240 | 5.0 | 13.0 | 0.00 | 0.00 | 0.00 | 42 | 1017.6 |
| 20260502151904 | 54 | 262 | 4.0 | 10.0 | 0.00 | 0.00 | 0.00 | 44 | 1017.9 |
| 20260502151403 | 54 | 309 | 3.0 | 10.0 | 0.00 | 0.00 | 0.00 | 43 | 1018.0 |
| 20260502150903 | 53 | 308 | 4.0 | 11.0 | 0.00 | 0.00 | 0.00 | 47 | 1018.0 |
| 20260502150400 | 53 | 288 | 5.0 | 11.0 | 0.00 | 0.00 | 0.00 | 46 | 1018.0 |
| 20260502130401 | 44 | 246 | 2.0 | 6.0 | 0.00 | 0.00 | 0.00 | 65 | 1018.5 |
| 20260502123403 | 41 | 208 | 1.0 | 4.0 | 0.00 | 0.00 | 0.00 | 71 | 1018.5 |
| 20260502123154 | 40 | 229 | 1.0 | 4.0 | 0.00 | 0.00 | 0.00 | 71 | 1018.4 |
| 20260502122403 | 39 | 238 | 0.0 | 2.0 | 0.00 | 0.00 | 0.00 | 73 | 1018.4 |
| 20260502121902 | 39 | 238 | 1.0 | 3.0 | 0.00 | 0.00 | 0.00 | 75 | 1018.4 |
| 20260502121402 | 38 | 238 | 0.0 | 3.0 | 0.00 | 0.00 | 0.00 | 77 | 1018.4 |
| 20260502120902 | 37 | 244 | 0.0 | 0.0 | 0.00 | 0.00 | 0.00 | 79 | 1018.4 |
| 20260502120653 | 36 | 271 | 0.0 | 0.0 | 0.00 | 0.00 | 0.00 | 82 | 1018.4 |
| 20260502115902 | 35 | 272 | 0.0 | 0.0 | 0.00 | 0.00 | 0.00 | 83 | 1018.3 |
| 20260502115402 | 34 | 273 | 0.0 | 0.0 | 0.00 | 0.00 | 0.00 | 84 | 1018.4 |
| 20260502114903 | 34 | 272 | 0.0 | 0.0 | 0.00 | 0.00 | 0.00 | 85 | 1018.4 |
| 20260502114404 | 33 | 273 | 0.0 | 0.0 | 0.00 | 0.00 | 0.00 | 86 | 1018.4 |
| 20260502113903 | 33 | 272 | 0.0 | 0.0 | 0.00 | 0.00 | 0.00 | 86 | 1018.5 |
| 20260502113402 | 32 | 273 | 0.0 | 0.0 | 0.00 | 0.00 | 0.00 | 86 | 1018.5 |
| 20260502112942 | 32 | 273 | 0.0 | 0.0 | 0.00 | 0.00 | 0.00 | 85 | 1018.3 |
| 20260502111903 | 32 | 272 | 0.0 | 0.0 | 0.00 | 0.00 | 0.00 | 85 | 1018.2 |
| 20260502111403 | 32 | 273 | 0.0 | 0.0 | 0.00 | 0.00 | 0.00 | 85 | 1018.2 |
| 20260502111151 | 32 | 273 | 0.0 | 0.0 | 0.00 | 0.00 | 0.00 | 85 | 1018.2 |
| 20260502110651 | 32 | 273 | 0.0 | 0.0 | 0.00 | 0.00 | 0.00 | 85 | 1018.2 |
| 20260502105904 | 32 | 273 | 0.0 | 0.0 | 0.00 | 0.00 | 0.00 | 85 | 1018.3 |
| 20260502105402 | 32 | 272 | 0.0 | 0.0 | 0.00 | 0.00 | 0.00 | 85 | 1018.2 |
| 20260502104901 | 32 | 273 | 0.0 | 0.0 | 0.00 | 0.00 | 0.00 | 85 | 1018.3 |
| 20260502104401 | 32 | 273 | 0.0 | 0.0 | 0.00 | 0.00 | 0.00 | 85 | 1018.2 |
| 20260502103901 | 32 | 273 | 0.0 | 0.0 | 0.00 | 0.00 | 0.00 | 85 | 1018.2 |
| 20260502103400 | 33 | 273 | 0.0 | 0.0 | 0.00 | 0.00 | 0.00 | 85 | 1018.4 |
| 20260502102903 | 33 | 272 | 0.0 | 0.0 | 0.00 | 0.00 | 0.00 | 85 | 1018.2 |
| 20260502102402 | 33 | 273 | 0.0 | 0.0 | 0.00 | 0.00 | 0.00 | 84 | 1018.2 |
| 20260502102151 | 33 | 272 | 0.0 | 0.0 | 0.00 | 0.00 | 0.00 | 84 | 1018.3 |
| 20260502101359 | 33 | 272 | 0.0 | 0.0 | 0.00 | 0.00 | 0.00 | 83 | 1018.3 |
| 20260502100851 | 33 | 273 | 0.0 | 0.0 | 0.00 | 0.00 | 0.00 | 83 | 1018.2 |
| 20260502100350 | 33 | 272 | 0.0 | 0.0 | 0.00 | 0.00 | 0.00 | 83 | 1018.3 |
| 20260502091347 | 34 | 273 | 0.0 | 1.0 | 0.00 | 0.00 | 0.00 | 80 | 1018.2 |
| 20260502090844 | 34 | 273 | 0.0 | 1.0 | 0.00 | 0.00 | 0.00 | 79 | 1018.0 |
| 20260502090342 | 34 | 273 | 0.0 | 1.0 | 0.00 | 0.00 | 0.00 | 79 | 1018.0 |
| 20260502071330 | 35 | 273 | 0.0 | 0.0 | 0.00 | 0.00 | 0.00 | 77 | 1018.2 |
| 20260502070830 | 35 | 272 | 0.0 | 0.0 | 0.00 | 0.00 | 0.00 | 77 | 1018.2 |
| 20260502070330 | 35 | 272 | 0.0 | 0.0 | 0.00 | 0.00 | 0.00 | 77 | 1018.3 |
| 20260502065830 | 36 | 273 | 0.0 | 0.0 | 0.00 | 0.00 | 0.00 | 77 | 1018.3 |
| 20260502065336 | 36 | 273 | 0.0 | 0.0 | 0.00 | 0.00 | 0.00 | 78 | 1018.3 |
| 20260502064833 | 36 | 273 | 0.0 | 0.0 | 0.00 | 0.00 | 0.00 | 78 | 1018.3 |
| 20260502064331 | 36 | 273 | 0.0 | 0.0 | 0.00 | 0.00 | 0.00 | 78 | 1018.3 |
| 20260502063830 | 36 | 272 | 0.0 | 0.0 | 0.00 | 0.00 | 0.00 | 78 | 1018.4 |
| 20260502063328 | 36 | 273 | 0.0 | 0.0 | 0.00 | 0.00 | 0.00 | 78 | 1018.3 |
| 20260502062830 | 36 | 273 | 0.0 | 0.0 | 0.00 | 0.00 | 0.00 | 78 | 1018.4 |
| 20260502062331 | 36 | 273 | 0.0 | 0.0 | 0.00 | 0.00 | 0.00 | 79 | 1018.4 |
| 20260502061825 | 36 | 272 | 0.0 | 0.0 | 0.00 | 0.00 | 0.00 | 79 | 1018.4 |
| 20260502061315 | 36 | 273 | 0.0 | 0.0 | 0.00 | 0.00 | 0.00 | 79 | 1018.4 |
| 20260502060815 | 36 | 273 | 0.0 | 0.0 | 0.00 | 0.00 | 0.00 | 78 | 1018.4 |
| 20260502060315 | 36 | 272 | 0.0 | 0.0 | 0.00 | 0.00 | 0.00 | 79 | 1018.4 |
| 20260502055815 | 36 | 273 | 0.0 | 0.0 | 0.00 | 0.00 | 0.00 | 78 | 1018.5 |
| 20260502055313 | 36 | 273 | 0.0 | 0.0 | 0.00 | 0.00 | 0.00 | 77 | 1018.5 |
| 20260502055112 | 36 | 272 | 0.0 | 0.0 | 0.00 | 0.00 | 0.00 | 77 | 1018.6 |
| 20260502054310 | 37 | 273 | 0.0 | 0.0 | 0.00 | 0.00 | 0.00 | 77 | 1018.5 |
| 20260502053810 | 37 | 272 | 0.0 | 1.0 | 0.00 | 0.00 | 0.00 | 77 | 1018.5 |
| 20260502053309 | 37 | 273 | 0.0 | 1.0 | 0.00 | 0.00 | 0.00 | 77 | 1018.5 |
| 20260502052809 | 37 | 273 | 0.0 | 1.0 | 0.00 | 0.00 | 0.00 | 78 | 1018.6 |
| 20260502052307 | 37 | 273 | 0.0 | 1.0 | 0.00 | 0.00 | 0.00 | 78 | 1018.5 |
| 20260502051805 | 37 | 272 | 0.0 | 1.0 | 0.00 | 0.00 | 0.00 | 79 | 1018.5 |
| 20260502051302 | 38 | 272 | 0.0 | 1.0 | 0.00 | 0.00 | 0.00 | 79 | 1018.5 |
| 20260502050803 | 38 | 273 | 0.0 | 1.0 | 0.00 | 0.00 | 0.00 | 78 | 1018.4 |
| 20260502050301 | 38 | 272 | 0.0 | 1.0 | 0.00 | 0.00 | 0.00 | 77 | 1018.5 |
| 20260502045802 | 38 | 273 | 0.0 | 1.0 | 0.00 | 0.00 | 0.00 | 76 | 1018.5 |
| 20260502045305 | 38 | 272 | 0.0 | 1.0 | 0.00 | 0.00 | 0.00 | 75 | 1018.4 |
| 20260502044758 | 38 | 273 | 0.0 | 1.0 | 0.00 | 0.00 | 0.00 | 74 | 1018.4 |
| 20260502044556 | 38 | 273 | 0.0 | 1.0 | 0.00 | 0.00 | 0.00 | 73 | 1018.5 |
| 20260502043758 | 39 | 273 | 0.0 | 1.0 | 0.00 | 0.00 | 0.00 | 73 | 1018.4 |
| 20260502043258 | 39 | 272 | 0.0 | 1.0 | 0.00 | 0.00 | 0.00 | 73 | 1018.4 |
| 20260502042755 | 39 | 272 | 0.0 | 1.0 | 0.00 | 0.00 | 0.00 | 73 | 1018.4 |
| 20260502042253 | 39 | 273 | 0.0 | 1.0 | 0.00 | 0.00 | 0.00 | 74 | 1018.4 |
| 20260502041750 | 39 | 273 | 0.0 | 0.0 | 0.00 | 0.00 | 0.00 | 74 | 1018.4 |
| 20260502041249 | 39 | 273 | 0.0 | 1.0 | 0.00 | 0.00 | 0.00 | 73 | 1018.4 |
| 20260502040747 | 40 | 273 | 0.0 | 1.0 | 0.00 | 0.00 | 0.00 | 73 | 1018.4 |
| 20260502040245 | 40 | 273 | 0.0 | 1.0 | 0.00 | 0.00 | 0.00 | 72 | 1018.4 |
| 20260502035742 | 40 | 272 | 0.0 | 1.0 | 0.00 | 0.00 | 0.00 | 71 | 1018.5 |
| 20260502035243 | 40 | 272 | 0.0 | 2.0 | 0.00 | 0.00 | 0.00 | 69 | 1018.4 |
| 20260502034743 | 41 | 273 | 0.0 | 2.0 | 0.00 | 0.00 | 0.00 | 68 | 1018.5 |
| 20260502034241 | 41 | 272 | 0.0 | 1.0 | 0.00 | 0.00 | 0.00 | 66 | 1018.5 |
| 20260502033742 | 42 | 273 | 0.0 | 1.0 | 0.00 | 0.00 | 0.00 | 67 | 1018.5 |
| 20260502033241 | 42 | 272 | 0.0 | 1.0 | 0.00 | 0.00 | 0.00 | 67 | 1018.5 |
| 20260502032739 | 42 | 273 | 0.0 | 1.0 | 0.00 | 0.00 | 0.00 | 67 | 1018.5 |
| 20260502032236 | 42 | 273 | 0.0 | 1.0 | 0.00 | 0.00 | 0.00 | 67 | 1018.6 |
| 20260502031736 | 43 | 273 | 0.0 | 1.0 | 0.00 | 0.00 | 0.00 | 66 | 1018.7 |
| 20260502031529 | 43 | 272 | 0.0 | 1.0 | 0.00 | 0.00 | 0.00 | 64 | 1018.5 |
| 20260502030735 | 43 | 273 | 0.0 | 1.0 | 0.00 | 0.00 | 0.00 | 64 | 1018.5 |
| 20260502030526 | 44 | 273 | 0.0 | 1.0 | 0.00 | 0.00 | 0.00 | 63 | 1018.5 |
| 20260502025731 | 44 | 273 | 0.0 | 0.0 | 0.00 | 0.00 | 0.00 | 64 | 1018.5 |
| 20260502025230 | 44 | 272 | 0.0 | 1.0 | 0.00 | 0.00 | 0.00 | 61 | 1018.5 |
| 20260502024730 | 44 | 273 | 0.0 | 1.0 | 0.00 | 0.00 | 0.00 | 60 | 1018.6 |
| 20260502024229 | 45 | 273 | 0.0 | 1.0 | 0.00 | 0.00 | 0.00 | 57 | 1018.6 |
| 20260502023729 | 45 | 273 | 0.0 | 1.0 | 0.00 | 0.00 | 0.00 | 56 | 1018.6 |
| 20260502023230 | 46 | 272 | 0.0 | 1.0 | 0.00 | 0.00 | 0.00 | 56 | 1018.6 |
| 20260502022730 | 46 | 272 | 0.0 | 1.0 | 0.00 | 0.00 | 0.00 | 54 | 1018.6 |
| 20260502022229 | 46 | 273 | 0.0 | 1.0 | 0.00 | 0.00 | 0.00 | 53 | 1018.6 |
| 20260502021730 | 47 | 272 | 0.0 | 1.0 | 0.00 | 0.00 | 0.00 | 51 | 1018.5 |
| 20260502021230 | 47 | 273 | 0.0 | 1.0 | 0.00 | 0.00 | 0.00 | 49 | 1018.5 |
| 20260502020725 | 47 | 273 | 0.0 | 1.0 | 0.00 | 0.00 | 0.00 | 46 | 1018.5 |
| 20260502020218 | 48 | 273 | 0.0 | 1.0 | 0.00 | 0.00 | 0.00 | 45 | 1018.4 |
| 20260502015712 | 48 | 273 | 0.0 | 1.0 | 0.00 | 0.00 | 0.00 | 45 | 1018.3 |
| 20260502015213 | 49 | 273 | 0.0 | 1.0 | 0.00 | 0.00 | 0.00 | 45 | 1018.3 |
| 20260502015011 | 49 | 273 | 0.0 | 1.0 | 0.00 | 0.00 | 0.00 | 46 | 1018.2 |
| 20260502014213 | 49 | 272 | 0.0 | 1.0 | 0.00 | 0.00 | 0.00 | 46 | 1018.2 |
| 20260502013709 | 50 | 272 | 0.0 | 1.0 | 0.00 | 0.00 | 0.00 | 43 | 1018.1 |
| 20260502013208 | 50 | 273 | 0.0 | 1.0 | 0.00 | 0.00 | 0.00 | 41 | 1018.1 |
| 20260502012710 | 50 | 273 | 0.0 | 1.0 | 0.00 | 0.00 | 0.00 | 39 | 1018.1 |
| 20260502012207 | 51 | 273 | 0.0 | 1.0 | 0.00 | 0.00 | 0.00 | 37 | 1018.1 |
| 20260502011707 | 51 | 272 | 0.0 | 1.0 | 0.00 | 0.00 | 0.00 | 37 | 1018.0 |
| 20260502011207 | 51 | 273 | 0.0 | 2.0 | 0.00 | 0.00 | 0.00 | 38 | 1018.1 |
| 20260502010707 | 51 | 272 | 0.0 | 2.0 | 0.00 | 0.00 | 0.00 | 37 | 1018.1 |
| 20260502010208 | 51 | 351 | 0.0 | 2.0 | 0.00 | 0.00 | 0.00 | 36 | 1018.1 |
| 20260502005707 | 51 | 351 | 1.0 | 2.0 | 0.00 | 0.00 | 0.00 | 36 | 1018.1 |
| 20260502005204 | 51 | 351 | 1.0 | 3.0 | 0.00 | 0.00 | 0.00 | 35 | 1018.1 |
| 20260502004703 | 51 | 324 | 2.0 | 3.0 | 0.00 | 0.00 | 0.00 | 35 | 1018.1 |
| 20260502004201 | 51 | 328 | 2.0 | 3.0 | 0.00 | 0.00 | 0.00 | 35 | 1018.1 |